Overview Statistics Trail Chart Weather Telemetry Raw packets
 

This is the latest recevied weather packets stored in our database for station/object KE8WMS. If no packets are shown the sender has not sent any weather packets the latest 10 day(s).

<< 19 20 21 22 23 24 25 >>
Time Temp. Humidity Pressure Rain* Wind** Luminosity Snow
1777696244 3.33° C 98% 1013.9 hPa 0 mm - 0 W/m² -
1777695939 3.33° C 98% 1013.6 hPa 0 mm - 0 W/m² -
1777695637 3.33° C 98% 1013.8 hPa 0 mm - 0 W/m² -
1777695335 3.33° C 98% 1013.9 hPa 0 mm - 0 W/m² -
1777695032 3.33° C 98% 1013.8 hPa 0 mm - 0 W/m² -
1777694728 3.33° C 98% 1014 hPa 0 mm - 0 W/m² -
1777694425 3.33° C 98% 1013.7 hPa 0 mm - 0 W/m² -
1777694121 3.89° C 98% 1013.6 hPa 0 mm - 0 W/m² -
1777693819 3.89° C 98% 1013.4 hPa 0 mm - 0 W/m² -
1777693516 3.89° C 98% 1013.5 hPa 0 mm - 0 W/m² -
1777693215 3.89° C 98% 1013.5 hPa 0 mm - 0 W/m² -
1777692913 3.89° C 98% 1013.3 hPa 0 mm - 0 W/m² -
1777692610 3.33° C 97% 1013.5 hPa 1.27 mm - 0 W/m² -
1777692305 3.89° C 97% 1013.2 hPa 1.78 mm - 0 W/m² -
1777692002 3.89° C 97% 1013.7 hPa 1.78 mm - 0 W/m² -
1777691700 3.89° C 97% 1013.5 hPa 1.27 mm - 0 W/m² -
1777691398 3.89° C 97% 1013.2 hPa 1.27 mm - 0 W/m² -
1777691096 3.89° C 97% 1013.5 hPa 1.78 mm - 0 W/m² -
1777690794 3.89° C 96% 1013.6 hPa 1.78 mm - 0 W/m² -
1777690491 3.89° C 96% 1013.1 hPa 1.27 mm - 0 W/m² -
1777690189 3.89° C 96% 1013.5 hPa 3.05 mm - 0 W/m² -
1777689887 3.89° C 96% 1013.2 hPa 3.05 mm - 0 W/m² -
1777689585 3.89° C 95% 1013.3 hPa 3.05 mm - 0 W/m² -
1777689282 3.89° C 95% 1013.1 hPa 6.1 mm - 0 W/m² -
1777688979 3.89° C 94% 1013.2 hPa 10.67 mm - 0 W/m² -

* Rain latest hour (hover to see other rain measurements)
** Current wind speed in m/s (hover to see current wind gust speed)